Regional Weather Roundup
Issued by NWS

Home | Current Version | Previous Version | Graphics & Text | Print | Product List | Glossary On
Versions: 1 2 3 4 5 6 7 8 9 10 11 12 13 14 15 16 17 18 19 20 21 22 23 24 25 26 27 28 29 30 31 32 33 34 35 36 37 38 39 40 41 42 43 44 45 46 47 48 49 50
000
ASUS45 KPSR 102110
RWRAZ

ARIZONA HOURLY REGIONAL WEATHER ROUNDUP
NATIONAL WEATHER SERVICE PHOENIX AZ
200 PM MST WED FEB 10 2016

NOTE: FAIR INDICATES FEW OR NO CLOUDS BELOW 12,000 FEET WITH NO
SIGNIFICANT WEATHER AND/OR OBSTRUCTIONS TO VISIBILITY.

AZZ001>003-036-102200-
NORTHWEST ARIZONA

CITY           SKY/WX    TMP DP  RH WIND       PRES   REMARKS
BULLHEAD CITY  MOSUNNY   73  25  16 N18G24    30.20F
KINGMAN        SUNNY     69  21  16 N6        30.28F
$$

AZZ004>008-015-016-018-102200-
NORTH CENTRAL ARIZONA

CITY           SKY/WX    TMP DP  RH WIND       PRES   REMARKS
GRAND CANYON   MOSUNNY   64   6  10 W6        30.40F
WILLIAMS       MOSUNNY   63  14  15 NW9       30.45F
PRESCOTT       MOSUNNY   68  15  13 CALM      30.33F
FLAGSTAFF      MOSUNNY   59   5  11 CALM      30.40F
PAYSON         SUNNY     66  23  19 VRB6G13   30.34F
PAGE           MOSUNNY   50  29  44 VRB3      30.38F
$$

AZZ009>014-017-102200-
NORTHEAST ARIZONA

CITY           SKY/WX    TMP DP  RH WIND       PRES   REMARKS
WINSLOW        SUNNY     59  23  25 NE3       30.37F
SAINT JOHNS    SUNNY     59  21  23 VRB7      30.36F
WINDOW ROCK    SUNNY     60   0   9 CALM      30.38F
SHOW LOW       SUNNY     57  21  24 N7        30.40F
$$

AZZ023-102200-
GREATER PHOENIX AREA

CITY           SKY/WX    TMP DP  RH WIND       PRES   REMARKS
PHOENIX        PTSUNNY   84  25  11 S5        30.15F
BUCKEYE        MOSUNNY   81  27  13 SE10      30.17F
GLENDALE       MOSUNNY   81  28  15 CALM      30.17F
DEER VALLEY    MOSUNNY   79  25  13 SW5       30.16F
SCOTTSDALE     SUNNY     80  22  11 W5        30.18F
MESA-FALCON    MOSUNNY  N/A N/A N/A N5        30.16F
MESA-GATEWAY   MOSUNNY   79  28  15 W5        30.17F
CHANDLER       MOSUNNY   81  27  13 SE5       30.17F
$$

AZZ027-028-102200-
SOUTHWEST MARICOPA COUNTY AND PINAL COUNTY

CITY           SKY/WX    TMP DP  RH WIND       PRES   REMARKS
CASA GRANDE    SUNNY     79  27  14 NE7       30.17F
$$

AZZ503-504-507>509-102200-
SOUTHEAST ARIZONA

CITY           SKY/WX    TMP DP  RH WIND       PRES   REMARKS
TUCSON         SUNNY     80  11   7 SE5       30.20F
RYAN FIELD     SUNNY     82  21  10 CALM      30.19F
NOGALES        SUNNY     79  12   8 CALM      30.24F
SIERRA VISTA   SUNNY     71  12  10 CALM      30.30F
DOUGLAS        SUNNY     71  13  10 VRB3      30.27F
SAFFORD        SUNNY     71  22  15 S6        30.25F
$$

AZZ020-021-025-026-031-102200-
SOUTHWEST ARIZONA

CITY           SKY/WX    TMP DP  RH WIND       PRES   REMARKS
YUMA           PTSUNNY   85  26  11 N6        30.12F
$$

CAZ031-033-041-043-047-048-061-102200-
SOUTHERN CALIFORNIA

CITY           SKY/WX    TMP DP  RH WIND       PRES   REMARKS
DOWNTOWN L.A.  SUNNY     88  27  11 CALM      30.08F
L.A. AIRPORT   MOSUNNY   82  37  20 W10       30.09F
SAN DIEGO      MOSUNNY   83  34  17 NW5       30.10F
BURBANK        SUNNY     84  24  11 CALM      30.11F
ONTARIO        MOSUNNY   84  23  10 CALM      30.12F
RIVERSIDE      PTSUNNY   87  20   8 NE6       30.11F
PALM SPRINGS   MOSUNNY   83  23  11 VRB6      30.16F
EL CENTRO NAS  MOSUNNY   84  24  11 N6        30.15F
IMPERIAL       MOSUNNY   83  26  12 W3        30.13F
BLYTHE         MOSUNNY   80  27  14 NE7       30.16F
NEEDLES        MOSUNNY   75  28  17 N9        30.21F
$$

NVZ020-UTZ003-102200-
SOUTHERN NEVADA-UTAH

CITY           SKY/WX    TMP DP  RH WIND       PRES   REMARKS
LAS VEGAS      MOSUNNY   68  25  19 E3        30.23F
SALT LAKE CITY CLOUDY    30  27  88 S5        30.45F FOG     WCI  25
$$

NMZ009-TXZ055-102200-
NEW MEXICO-WEST TEXAS

CITY           SKY/WX    TMP DP  RH WIND       PRES   REMARKS
ALBUQUERQUE    SUNNY     58  17  20 CALM      30.34F
EL PASO        SUNNY     68  18  14 SW6       30.29F
$$


........................KEY........................
SKY/WX - SKY CONDITION/WEATHER
TMP    - TEMPERATURE IN FAHRENHEIT
DP     - DEW POINT IN FAHRENHEIT
RH     - RELATIVE HUMIDITY IN PERCENT
WIND   - DIRECTION AND SPEED IN MILES PER HOUR (MPH)
VRB    - VARIABLE WIND DIRECTION
PRES   - MEAN SEA LEVEL PRESSURE IN INCHES OF MERCURY
         F - FALLING PRESSURE   R - RISING PRESSURE
         S - STEADY PRESSURE
VSB    - VISIBILITY IN MILES
HX     - HEAT INDEX IN FAHRENHEIT
WCI    - WIND CHILL INDEX IN FAHRENHEIT
TC     - TEMPERATURE IN CELSIUS WHICH IS ALSO KNOWN AS
         TEMPERATURE IN CENTIGRADE
AFB    - AIR FORCE BASE
         LUKE AFB IS LUKE AIR FORCE BASE
         DAVIS-MONTHAN IS DAVIS-MONTHAN AIR FORCE BASE
NAS    - NAVAL AIR STATION
         EL CENTRO NAS IS EL CENTRO NAVAL AIR STATION
N/A    - NOT AVAILABLE




USA.gov is the U.S. government's official web portal to all federal, state and local government web resources and services.